| time (UTC) | temp F | wind direction | speed knots | gust knots | rain 1hr in | rain 24hr in | rain mn in | humidity % | barometer mb |
| 20260509094528 | 62 | 236 | 0.9 | 3.5 | 0.15 | 0.00 | 0.47 | 9 | 1008.0 |
| 20260509093301 | 62 | 236 | 0.9 | 3.5 | 0.15 | 0.00 | 0.47 | 9 | 1008.0 |
| 20260509091921 | 63 | 0 | 0.0 | 3.5 | 0.16 | 0.00 | 0.46 | 9 | 1007.3 |
| 20260509090521 | 62 | 222 | 1.7 | 3.5 | 0.21 | 0.00 | 0.45 | 9 | 1008.1 |
| 20260509085037 | 62 | 147 | 0.9 | 0.9 | 0.17 | 0.00 | 0.37 | 9 | 1008.1 |
| 20260509083721 | 61 | 245 | 0.9 | 7.0 | 0.16 | 0.00 | 0.31 | 9 | 1006.6 |
| 20260509082326 | 61 | 0 | 0.0 | 0.9 | 0.22 | 0.00 | 0.29 | 9 | 1007.6 |
| 20260509081048 | 61 | 0 | 0.0 | 0.9 | 0.18 | 0.00 | 0.25 | 9 | 1008.2 |
| 20260509075753 | 62 | 0 | 0.0 | 0.9 | 0.14 | 0.00 | 0.20 | 9 | 1008.3 |
| 20260509074417 | 62 | 0 | 0.0 | 0.9 | 0.11 | 0.00 | 0.15 | 9 | 1008.3 |
| 20260509073156 | 62 | 0 | 0.0 | 0.9 | 0.11 | 0.00 | 0.15 | 9 | 1008.3 |
| 20260509071731 | 62 | 0 | 0.0 | 0.9 | 0.04 | 0.00 | 0.07 | 9 | 1008.8 |
| 20260509070510 | 62 | 117 | 2.6 | 3.5 | 0.03 | 0.00 | 0.06 | 9 | 1007.4 |
| 20260509065041 | 62 | 238 | 1.7 | 2.6 | 0.03 | 0.00 | 0.05 | 9 | 1008.5 |
| 20260509063726 | 62 | 0 | 0.0 | 0.0 | 0.03 | 0.00 | 0.03 | 9 | 1008.5 |
| 20260509062322 | 62 | 131 | 0.9 | 0.9 | 0.03 | 0.00 | 0.03 | 9 | 1007.7 |
| 20260509061051 | 62 | 0 | 0.0 | 0.9 | 0.03 | 0.00 | 0.03 | 9 | 1007.0 |
| 20260509055646 | 62 | 0 | 0.0 | 2.6 | 0.02 | 0.00 | 0.03 | 8 | 1007.2 |
| 20260509054306 | 63 | 0 | 0.0 | 0.9 | 0.00 | 0.00 | 0.00 | 8 | 1007.5 |
| 20260509052926 | 63 | 122 | 3.5 | 4.3 | 0.00 | 0.00 | 0.00 | 8 | 1007.8 |
| 20260509051549 | 63 | 0 | 0.0 | 0.9 | 0.00 | 0.00 | 0.00 | 8 | 1007.7 |
| 20260509050241 | 63 | 0 | 0.0 | 0.9 | 0.00 | 0.00 | 0.00 | 8 | 1007.7 |
| 20260509044842 | 63 | 0 | 0.0 | 0.9 | 0.00 | 0.00 | 0.00 | 8 | 1007.7 |
| 20260509043531 | 63 | 0 | 0.0 | 0.0 | 0.00 | 0.00 | 0.00 | 8 | 1007.5 |
| 20260509042036 | 63 | 0 | 0.0 | 0.9 | 0.00 | 0.00 | 0.00 | 8 | 1007.5 |
| 20260509040826 | 63 | 265 | 0.9 | 0.9 | 0.00 | 0.00 | 0.00 | 8 | 1007.5 |
| 20260509035331 | 63 | 0 | 0.0 | 0.0 | 0.00 | 0.00 | 0.00 | 8 | 1007.7 |
| 20260509034121 | 63 | 219 | 2.6 | 2.6 | 0.00 | 0.00 | 0.00 | 8 | 1007.7 |
| 20260509032854 | 63 | 0 | 0.0 | 0.0 | 0.00 | 0.00 | 0.00 | 8 | 1007.8 |
| 20260509031441 | 62 | 0 | 0.0 | 0.0 | 0.00 | 0.00 | 0.00 | 8 | 1007.9 |
| 20260509025941 | 62 | 0 | 0.0 | 0.0 | 0.00 | 0.00 | 0.00 | 8 | 1007.9 |
| 20260509024726 | 62 | 0 | 0.0 | 0.0 | 0.00 | 0.00 | 0.00 | 8 | 1007.9 |
| 20260509023311 | 62 | 0 | 0.0 | 0.0 | 0.00 | 0.00 | 0.00 | 8 | 1008.1 |
| 20260509022057 | 62 | 0 | 0.0 | 1.7 | 0.00 | 0.00 | 0.00 | 8 | 1007.9 |
| 20260509020826 | 61 | 0 | 0.0 | 0.0 | 0.00 | 0.00 | 0.00 | 8 | 1008.2 |
| 20260509015401 | 61 | 0 | 0.0 | 0.0 | 0.00 | 0.00 | 0.00 | 8 | 1008.4 |
| 20260509014126 | 61 | 0 | 0.0 | 0.9 | 0.00 | 0.00 | 0.00 | 8 | 1008.7 |
| 20260509012746 | 61 | 0 | 0.0 | 0.0 | 0.00 | 0.00 | 0.00 | 8 | 1009.0 |
| 20260509011436 | 61 | 0 | 0.0 | 0.0 | 0.00 | 0.00 | 0.00 | 8 | 1009.0 |
| 20260509010113 | 61 | 0 | 0.0 | 0.0 | 0.00 | 0.00 | 0.00 | 8 | 1009.0 |
| 20260509004656 | 61 | 0 | 0.0 | 0.0 | 0.00 | 0.00 | 0.00 | 8 | 1009.1 |
| 20260509003332 | 62 | 0 | 0.0 | 0.0 | 0.00 | 0.00 | 0.00 | 8 | 1009.5 |
| 20260509002051 | 61 | 0 | 0.0 | 0.0 | 0.00 | 0.00 | 0.00 | 8 | 1009.5 |
| 20260509000847 | 61 | 0 | 0.0 | 0.0 | 0.00 | 0.00 | 0.00 | 8 | 1009.5 |
| 20260508235527 | 61 | 0 | 0.0 | 0.0 | 0.00 | 0.00 | 0.00 | 8 | 1009.8 |
| 20260508234143 | 61 | 0 | 0.0 | 0.0 | 0.00 | 0.00 | 0.00 | 8 | 1009.7 |
| 20260508232720 | 61 | 0 | 0.0 | 0.0 | 0.00 | 0.00 | 0.00 | 8 | 1009.7 |
| 20260508231233 | 61 | 0 | 0.0 | 0.0 | 0.00 | 0.00 | 0.00 | 8 | 1010.2 |
| 20260508225851 | 61 | 0 | 0.0 | 0.0 | 0.00 | 0.00 | 0.00 | 8 | 1010.1 |
| 20260508224511 | 61 | 0 | 0.0 | 0.9 | 0.00 | 0.00 | 0.00 | 8 | 1010.3 |
| 20260508223036 | 61 | 0 | 0.0 | 0.9 | 0.00 | 0.00 | 0.00 | 8 | 1010.1 |
| 20260508221653 | 61 | 0 | 0.0 | 0.9 | 0.00 | 0.00 | 0.00 | 8 | 1010.1 |
| 20260508220421 | 62 | 131 | 0.9 | 0.9 | 0.00 | 0.00 | 0.00 | 8 | 1010.1 |
| 20260508214946 | 62 | 0 | 0.0 | 0.9 | 0.00 | 0.00 | 0.01 | 8 | 1010.2 |
| 20260508213621 | 62 | 0 | 0.0 | 0.9 | 0.00 | 0.00 | 0.01 | 8 | 1010.3 |
| 20260508212236 | 62 | 129 | 1.7 | 1.7 | 0.00 | 0.00 | 0.01 | 8 | 1010.3 |
| 20260508210804 | 63 | 149 | 0.9 | 0.9 | 0.00 | 0.00 | 0.01 | 8 | 1010.1 |
| 20260508205501 | 63 | 0 | 0.0 | 0.0 | 0.00 | 0.00 | 0.01 | 8 | 1010.2 |
| 20260508204119 | 64 | 0 | 0.0 | 0.9 | 0.00 | 0.00 | 0.01 | 8 | 1010.1 |
| 20260508202733 | 64 | 0 | 0.0 | 0.0 | 0.00 | 0.00 | 0.01 | 8 | 1009.9 |
| 20260508201406 | 64 | 0 | 0.0 | 0.0 | 0.00 | 0.00 | 0.01 | 8 | 1009.7 |
| 20260508195955 | 64 | 0 | 0.0 | 1.7 | 0.00 | 0.00 | 0.01 | 8 | 1009.6 |
| 20260508194511 | 64 | 0 | 0.0 | 2.6 | 0.00 | 0.00 | 0.01 | 8 | 1009.5 |
| 20260508193128 | 64 | 0 | 0.0 | 2.6 | 0.00 | 0.00 | 0.01 | 8 | 1009.5 |
| 20260508191650 | 64 | 345 | 0.9 | 0.9 | 0.00 | 0.00 | 0.01 | 8 | 1009.4 |
| 20260508190301 | 65 | 306 | 1.7 | 2.6 | 0.00 | 0.00 | 0.01 | 7 | 1009.4 |
| 20260508185031 | 65 | 110 | 0.9 | 1.7 | 0.00 | 0.00 | 0.01 | 7 | 1009.2 |
| 20260508183616 | 66 | 0 | 0.0 | 1.7 | 0.00 | 0.00 | 0.01 | 7 | 1009.1 |
| 20260508182206 | 67 | 285 | 1.7 | 1.7 | 0.00 | 0.00 | 0.01 | 7 | 1009.0 |
| 20260508180938 | 68 | 0 | 0.0 | 0.0 | 0.00 | 0.00 | 0.01 | 7 | 1008.8 |
| 20260508175451 | 67 | 0 | 0.0 | 2.6 | 0.00 | 0.00 | 0.01 | 7 | 1009.0 |
| 20260508174036 | 68 | 0 | 0.0 | 2.6 | 0.00 | 0.00 | 0.01 | 7 | 1008.9 |
| 20260508172654 | 68 | 0 | 0.0 | 1.7 | 0.00 | 0.00 | 0.01 | 7 | 1008.9 |
| 20260508171247 | 68 | 0 | 0.0 | 1.7 | 0.00 | 0.00 | 0.01 | 7 | 1008.9 |
| 20260508165844 | 69 | 319 | 1.7 | 2.6 | 0.00 | 0.00 | 0.01 | 7 | 1008.9 |
| 20260508164530 | 68 | 0 | 0.0 | 0.0 | 0.00 | 0.00 | 0.01 | 7 | 1009.0 |
| 20260508163256 | 68 | 0 | 0.0 | 0.0 | 0.00 | 0.00 | 0.01 | 7 | 1009.0 |
| 20260508161843 | 69 | 0 | 0.0 | 2.6 | 0.00 | 0.00 | 0.01 | 7 | 1009.0 |
| 20260508160450 | 68 | 0 | 0.0 | 3.5 | 0.00 | 0.00 | 0.01 | 7 | 1008.7 |
| 20260508155101 | 68 | 0 | 0.0 | 2.6 | 0.00 | 0.00 | 0.01 | 7 | 1008.6 |
| 20260508153716 | 68 | 240 | 1.7 | 1.7 | 0.00 | 0.00 | 0.01 | 7 | 1008.4 |
| 20260508152341 | 67 | 230 | 2.6 | 7.0 | 0.00 | 0.00 | 0.01 | 7 | 1008.6 |
| 20260508151113 | 68 | 226 | 0.9 | 3.5 | 0.00 | 0.00 | 0.01 | 7 | 1008.7 |
| 20260508145815 | 68 | 150 | 0.9 | 5.2 | 0.00 | 0.00 | 0.01 | 7 | 1008.7 |
| 20260508143055 | 67 | 187 | 3.5 | 5.2 | 0.00 | 0.00 | 0.01 | 7 | 1009.3 |
| 20260508141801 | 67 | 187 | 3.5 | 5.2 | 0.00 | 0.00 | 0.01 | 7 | 1009.3 |
| 20260508140502 | 67 | 0 | 0.0 | 3.5 | 0.00 | 0.00 | 0.01 | 7 | 1009.4 |
| 20260508135221 | 67 | 177 | 0.9 | 0.9 | 0.00 | 0.00 | 0.01 | 7 | 1009.5 |
| 20260508133749 | 67 | 195 | 3.5 | 6.1 | 0.00 | 0.00 | 0.01 | 7 | 1009.6 |
| 20260508132548 | 67 | 226 | 5.2 | 9.6 | 0.00 | 0.00 | 0.01 | 7 | 1009.9 |
| 20260508131244 | 70 | 0 | 0.0 | 3.5 | 0.00 | 0.00 | 0.01 | 6 | 1009.8 |
| 20260508130001 | 68 | 210 | 0.9 | 1.7 | 0.00 | 0.00 | 0.01 | 7 | 1009.9 |
| 20260508124800 | 68 | 210 | 0.9 | 1.7 | 0.00 | 0.00 | 0.01 | 7 | 1009.9 |
| 20260508123500 | 69 | 165 | 1.7 | 6.1 | 0.00 | 0.00 | 0.01 | 6 | 1010.0 |
| 20260508122011 | 69 | 193 | 1.7 | 2.6 | 0.00 | 0.00 | 0.01 | 7 | 1010.0 |
| 20260508120719 | 67 | 0 | 0.0 | 3.5 | 0.00 | 0.00 | 0.01 | 7 | 1010.1 |
| 20260508115446 | 65 | 236 | 0.9 | 1.7 | 0.00 | 0.00 | 0.01 | 7 | 1010.3 |
| 20260508114048 | 65 | 131 | 0.9 | 2.6 | 0.00 | 0.00 | 0.01 | 7 | 1010.3 |
| 20260508112555 | 64 | 0 | 0.0 | 2.6 | 0.00 | 0.00 | 0.01 | 7 | 1010.4 |
| 20260508111335 | 64 | 0 | 0.0 | 5.2 | 0.00 | 0.00 | 0.01 | 7 | 1010.0 |
| 20260508110047 | 63 | 214 | 1.7 | 5.2 | 0.00 | 0.00 | 0.01 | 7 | 1009.5 |
| 20260508105709 | 63 | 214 | 1.7 | 5.2 | 0.00 | 0.00 | 0.01 | 7 | 1009.5 |
| 20260508104500 | 64 | 204 | 0.9 | 3.5 | 0.00 | 0.00 | 0.01 | 7 | 1010.4 |
| 20260508103032 | 64 | 0 | 0.0 | 0.0 | 0.00 | 0.00 | 0.01 | 7 | 1010.4 |
| 20260508101548 | 64 | 0 | 0.0 | 0.9 | 0.00 | 0.00 | 0.01 | 7 | 1010.7 |
| 20260508100240 | 64 | 0 | 0.0 | 0.9 | 0.00 | 0.00 | 0.01 | 7 | 1010.7 |